This is the latest recevied weather packets stored in our database for station/object N8TWM-13. If no packets are shown the sender has not sent any weather packets the latest 10 day(s).
| Time | Temp. | Humidity | Pressure | Rain* | Wind** | Luminosity | Snow |
|---|---|---|---|---|---|---|---|
| 1777835944 | 15° C | 43% | 1014.6 hPa | 0 mm | - | 341 W/m² | - |
| 1777835642 | 15° C | 43% | 1014.7 hPa | 0 mm | - | 280 W/m² | - |
| 1777835338 | 15° C | 42% | 1015 hPa | 0 mm | - | 417 W/m² | - |
| 1777835035 | 15° C | 42% | 1014.8 hPa | 0 mm | - | 720 W/m² | - |
| 1777834732 | 15° C | 42% | 1015 hPa | 0 mm | - | 304 W/m² | - |
| 1777834429 | 14.44° C | 41% | 1015.2 hPa | 0 mm | - | 753 W/m² | - |
| 1777834128 | 16.11° C | 42% | 1015.1 hPa | 0 mm | - | 209 W/m² | - |
| 1777833825 | 15.56° C | 39% | 1015 hPa | 0 mm | - | 709 W/m² | - |
| 1777833520 | 15.56° C | 40% | 1015.3 hPa | 0 mm | - | 786 W/m² | - |
| 1777833218 | 14.44° C | 42% | 1015.2 hPa | 0 mm | - | 304 W/m² | - |
| 1777832915 | 14.44° C | 43% | 1015.2 hPa | 0 mm | - | 590 W/m² | - |
| 1777832614 | 14.44° C | 42% | 1015.3 hPa | 0 mm | - | 660 W/m² | - |
| 1777832311 | 15° C | 42% | 1015.5 hPa | 0 mm | - | 301 W/m² | - |
| 1777832008 | 14.44° C | 44% | 1015.4 hPa | 0 mm | - | 823 W/m² | - |
| 1777831704 | 14.44° C | 46% | 1015.5 hPa | 0 mm | - | 438 W/m² | - |
| 1777831402 | 15° C | 43% | 1015.4 hPa | 0 mm | - | 557 W/m² | - |
| 1777831098 | 15° C | 48% | 1015.4 hPa | 0 mm | - | 730 W/m² | - |
| 1777830796 | 14.44° C | 46% | 1015.6 hPa | 0 mm | - | 486 W/m² | - |
| 1777830492 | 15° C | 44% | 1015.8 hPa | 0 mm | - | 469 W/m² | - |
| 1777830190 | 15° C | 44% | 1015.6 hPa | 0 mm | - | 178 W/m² | - |
| 1777829885 | 15.56° C | 49% | 1015.9 hPa | 0 mm | - | 144 W/m² | - |
| 1777829582 | 15° C | 44% | 1016 hPa | 0 mm | - | 164 W/m² | - |
| 1777829279 | 14.44° C | 47% | 1015.8 hPa | 0 mm | - | 201 W/m² | - |
| 1777828976 | 13.89° C | 46% | 1016 hPa | 0 mm | - | 203 W/m² | - |
| 1777828672 | 13.33° C | 47% | 1016.1 hPa | 0 mm | - | 208 W/m² | - |
* Rain latest hour (hover to see other rain measurements)
** Current wind speed in m/s (hover to see current wind gust speed)